Wind_Speed
6 4 1 2 2 5 7 9 14 7 10 9 13 17 20 26 27 26 18 18 19 22 30 31 34 33 31 29 29 29 28 27 27 24 24 26 26 28 29 28 27 26 26 26 24 25 25 27 29
5 3 4 1 4 4 4 9 9 10 11 13 13 21 21 16 17 15 17 21 24 26 29 29 31 31 26 25 25 25 26 24 23 25 26 27 27 27 29 30 30 29 28 27 26 26 29 29 30
3 4 2 5 7 4 7 6 16 17 15 13 15 14 14 17 16 17 18 17 21 26 27 29 28 23 23 23 23 22 21 23 25 27 27 26 27 27 29 29 29 29 28 26 26 27 28 31 31
6 4 6 12 11 10 14 18 15 9 12 11 16 10 15 17 12 13 15 20 25 26 26 28 21 22 23 23 22 23 24 26 26 27 28 27 28 28 28 30 30 29 28 28 27 26 27 29 31
6 9 13 16 9 8 13 20 4 13 14 14 7 13 13 11 12 15 22 26 22 28 29 21 18 18 22 24 24 24 25 26 28 29 29 30 29 28 27 28 29 29 29 29 28 27 26 27 30
9 10 12 17 15 14 11 4 15 24 18 18 21 17 13 14 18 24 29 27 27 28 24 18 18 18 23 26 26 24 27 29 29 28 27 28 27 26 27 28 29 28 28 29 28 28 28 26 27
12 14 22 22 20 16 7 8 24 26 18 17 21 26 27 26 26 28 26 28 28 25 21 14 18 20 23 27 31 28 28 27 26 24 26 27 28 27 27 27 27 26 25 26 28 29 30 28 27
17 16 22 24 20 19 9 12 16 19 14 16 20 23 24 22 22 25 26 27 25 22 19 17 21 23 27 30 35 36 35 28 24 26 28 29 26 24 23 24 25 26 25 25 28 28 30 29 29
18 23 27 28 25 18 11 20 16 25 19 11 19 24 29 23 22 23 27 25 25 24 20 21 22 26 31 35 38 41 38 29 24 28 29 24 21 20 20 21 23 23 22 21 21 25 26 28 28
29 32 33 26 27 22 19 20 23 31 31 28 24 24 24 24 22 22 25 24 28 29 28 24 25 27 33 36 39 42 39 28 27 29 26 23 18 18 18 18 20 20 20 18 17 20 24 27 27
36 40 36 32 31 24 24 24 22 32 37 33 30 28 23 19 20 22 22 25 30 30 30 28 28 29 34 36 39 42 38 31 30 24 19 16 16 18 18 18 17 18 19 19 19 19 23 24 24
41 39 39 38 31 27 29 28 34 39 38 35 21 21 23 19 23 23 24 29 33 31 29 29 29 30 33 34 37 39 33 28 23 21 17 16 18 18 17 22 22 17 16 17 19 21 21 23 23
37 38 41 36 29 27 29 38 40 41 38 25 23 28 26 25 25 26 29 32 28 29 28 28 28 30 33 33 36 36 30 27 22 20 18 17 18 19 21 25 17 17 17 17 19 20 20 21 21
31 37 38 32 30 34 39 42 38 36 30 22 24 29 28 29 29 33 37 32 27 27 25 23 26 31 33 32 35 31 27 22 21 18 16 16 20 20 21 17 13 11 14 17 18 19 20 22 21
35 41 35 32 35 42 40 46 43 37 30 26 24 30 31 31 33 35 35 29 27 25 24 22 26 32 32 31 31 25 23 19 19 13 17 15 19 19 16 13 10 11 14 17 17 19 22 23 23
36 37 40 41 36 36 33 46 41 38 30 31 31 32 31 30 35 33 33 29 28 24 23 23 27 31 30 28 26 20 19 19 17 18 17 17 18 15 12 11 10 12 15 14 18 19 20 21 24
36 38 44 45 39 36 32 43 39 27 35 37 36 30 26 28 32 33 34 29 29 23 22 24 29 30 27 27 22 18 21 20 17 16 17 14 19 11 9 11 10 12 11 12 18 20 23 20 20
35 39 39 43 38 35 37 38 38 34 40 39 35 28 25 26 29 29 31 32 25 22 22 25 28 29 26 24 16 16 21 19 17 18 15 16 17 12 9 11 8 9 8 10 16 23 24 18 20
34 30 34 46 35 34 34 34 37 36 30 22 25 22 23 21 22 25 32 32 26 22 23 25 26 25 23 21 13 16 21 20 19 17 16 15 14 11 9 7 5 6 6 11 18 26 25 19 20
37 35 37 40 37 33 35 40 37 32 25 24 22 26 23 27 27 25 26 23 23 21 24 24 22 22 22 18 11 14 20 21 20 18 15 13 11 11 7 5 3 4 7 11 21 29 22 20 23
40 39 36 38 33 36 38 41 33 16 17 21 25 25 26 29 31 26 23 15 19 20 22 22 19 20 19 15 11 14 21 24 21 15 12 12 11 8 7 5 2 8 12 15 22 24 18 19 21
43 38 40 33 35 25 19 15 28 22 21 17 23 24 28 33 19 16 16 14 14 18 21 19 15 19 16 12 10 12 18 19 17 15 11 9 11 2 6 6 5 10 13 14 17 17 14 19 23
43 32 35 31 37 36 36 21 33 24 29 26 29 26 25 11 9 9 10 13 16 19 18 13 16 16 13 9 9 10 16 17 16 14 16 10 11 1 6 6 7 10 13 13 15 14 17 21 22
23 32 32 33 36 20 38 29 42 31 30 26 14 17 11 8 6 8 10 14 16 16 9 11 15 14 11 6 6 9 14 14 15 13 17 10 8 1 5 7 10 11 14 14 16 17 12 21 18
33 32 11 8 9 12 28 21 27 31 23 11 14 13 8 7 6 7 10 11 12 7 8 12 11 12 7 4 5 9 12 12 13 13 17 10 5 4 8 11 13 15 15 13 13 15 17 17 16
45 39 19 7 6 5 17 10 31 11 13 18 15 15 6 6 8 10 10 11 9 5 9 10 8 8 4 2 4 8 9 10 12 14 12 9 6 9 13 16 16 17 15 13 12 18 15 16 18
42 41 44 30 19 4 14 24 24 29 21 25 23 13 8 8 7 6 8 6 3 8 8 7 5 3 0 1 5 8 6 9 14 14 10 10 8 10 13 15 16 15 15 15 16 14 14 17 18
53 31 29 19 10 6 6 14 21 11 19 24 17 10 6 7 4 4 2 2 6 5 4 5 3 1 0 2 6 5 7 11 14 15 13 12 9 9 12 14 15 14 14 14 16 18 20 22 18
43 40 32 29 29 8 3 19 34 20 25 25 14 7 9 5 3 3 3 5 5 4 1 3 2 1 1 3 4 5 7 9 12 12 13 10 8 10 11 13 14 13 13 14 16 17 18 19 15
45 42 41 29 10 18 22 28 20 17 28 23 14 12 9 5 4 3 1 2 6 6 2 3 1 1 1 3 4 3 6 6 8 11 9 10 12 14 15 17 15 14 14 15 16 19 18 15 14
Wind_Direction
111 121 191 269 245 244 293 334 326 322 280 334 326 314 311 298 294 289 293 310 305 308 311 312 311 308 303 298 296 295 296 295 294 294 293 290 289 289 287 284 280 272 263 255 249 248 244 233 232
121 166 208 261 226 252 326 10 2 329 337 334 323 308 305 297 285 291 299 302 309 309 312 314 310 302 294 292 292 296 297 295 294 294 291 289 285 285 286 286 281 275 269 264 258 247 242 241 232
179 192 280 244 238 250 318 290 326 313 304 324 311 292 282 287 280 291 298 299 305 310 313 313 311 309 310 310 307 307 302 298 295 292 289 284 282 283 282 280 278 275 271 264 258 251 242 241 238
223 225 234 252 262 303 327 322 316 280 312 302 304 251 263 280 285 294 302 308 312 317 310 314 318 327 329 322 314 309 306 302 297 293 291 286 283 281 278 276 276 274 269 264 256 248 243 239 239
238 253 253 259 270 285 318 335 266 284 296 292 252 264 269 282 300 312 309 310 314 314 315 319 324 337 342 334 322 314 308 304 300 295 290 288 284 281 278 275 271 269 268 264 260 253 246 244 243
238 236 257 265 281 291 307 345 310 298 303 287 288 292 285 289 299 302 307 315 310 317 321 331 326 335 338 340 330 320 315 308 299 295 294 292 290 285 281 278 273 272 271 268 261 253 247 242 244
245 241 266 278 280 296 303 317 337 317 287 308 289 281 284 291 307 305 306 304 303 313 322 318 329 329 331 335 334 327 322 315 306 302 297 297 294 287 282 280 279 277 274 269 263 253 244 236 240
258 246 259 264 269 278 279 290 303 316 300 298 277 280 294 295 305 294 293 295 301 310 313 313 324 325 329 331 336 335 329 323 315 308 304 299 290 285 283 281 280 278 273 266 256 249 240 235 234
248 243 255 266 266 283 287 287 282 303 295 295 292 290 302 284 293 278 286 294 305 305 300 313 332 330 328 330 334 334 327 323 312 306 301 293 286 287 286 286 282 275 264 261 251 242 235 231 230
241 237 259 285 278 269 281 279 286 297 294 286 292 294 301 281 278 274 286 288 300 304 311 326 332 328 323 325 331 328 323 314 310 305 304 298 292 293 290 284 275 268 260 251 255 242 232 228 228
250 247 272 273 275 275 279 279 283 289 291 289 291 297 288 273 277 287 280 290 306 306 318 322 323 320 316 320 323 323 319 316 318 311 304 295 296 297 290 288 283 274 265 251 240 246 233 230 226
245 259 263 273 275 270 274 284 281 287 280 294 275 294 280 276 286 297 293 302 308 305 312 314 314 306 303 308 318 319 313 316 311 307 301 303 295 291 293 284 291 271 266 250 236 234 235 226 221
248 269 265 267 269 270 281 278 278 276 283 276 277 284 278 276 284 294 299 304 311 311 310 310 306 298 298 306 316 316 314 316 312 310 308 301 295 286 284 285 273 255 257 252 242 235 228 218 218
269 267 266 261 257 270 275 279 282 274 282 271 266 263 274 273 282 288 293 298 307 310 311 306 296 299 299 307 317 314 312 315 312 308 311 301 302 292 287 294 260 256 252 254 240 232 216 210 209
258 259 261 257 261 265 268 274 272 272 272 275 275 264 274 272 276 284 287 288 299 303 305 304 297 298 299 307 314 312 316 315 311 305 314 314 310 307 285 254 249 264 272 255 236 218 208 204 202
246 246 260 255 252 254 265 273 270 268 269 266 266 266 269 280 271 281 283 286 293 300 302 295 292 294 297 309 313 314 331 327 310 303 308 316 328 308 273 245 263 283 285 248 226 210 198 197 198
243 250 249 257 252 261 261 267 267 268 273 270 259 260 268 277 269 274 276 286 287 293 291 288 290 292 300 311 314 329 333 326 319 312 310 326 332 301 270 260 271 288 270 237 211 198 188 193 186
234 238 249 256 268 257 263 263 261 271 276 263 259 257 271 271 274 275 280 275 280 287 288 286 290 294 301 314 314 340 338 337 323 313 311 318 323 300 265 256 269 286 260 210 193 183 180 178 176
242 245 252 253 267 266 271 279 279 278 275 251 242 255 267 280 280 278 270 269 275 284 290 285 289 293 304 311 309 336 345 343 330 322 319 318 313 310 259 251 276 267 226 193 185 176 176 180 182
237 245 253 260 261 262 264 272 286 282 263 254 256 259 271 284 272 269 274 288 280 283 288 288 285 291 305 308 303 325 343 344 337 325 319 322 319 318 242 225 263 199 171 167 170 171 172 173 167
235 235 246 253 266 260 268 278 290 262 247 251 252 261 276 273 271 272 272 286 277 283 285 285 284 291 304 307 306 322 348 349 344 350 332 329 337 306 216 200 174 165 155 153 163 171 171 165 169
234 233 239 250 260 263 262 283 283 275 271 259 260 261 270 282 254 270 267 269 278 281 285 284 280 296 303 309 304 330 347 341 358 0 357 352 347 21 195 180 171 160 158 154 166 168 176 171 176
234 237 239 242 253 260 269 278 276 271 284 276 266 266 276 229 271 259 257 267 278 281 288 281 284 297 301 303 298 329 348 346 357 9 7 345 350 4 183 163 155 158 156 153 154 166 169 170 181
242 236 234 247 256 254 254 258 272 268 281 284 266 248 239 264 269 261 256 267 281 283 275 277 290 297 296 302 305 332 354 346 354 352 358 1 332 239 168 150 141 147 145 139 144 148 160 176 178
231 229 238 251 220 242 256 236 252 276 284 262 251 236 237 253 267 271 272 283 290 268 279 284 296 292 297 308 320 347 357 348 351 3 357 3 1 157 151 143 141 148 141 138 136 159 156 164 181
220 220 212 185 222 240 228 236 266 276 253 257 232 227 271 315 292 281 281 282 283 265 287 292 298 295 308 332 345 358 0 355 357 352 10 28 63 130 144 149 148 148 150 156 146 149 146 150 157
218 224 229 238 260 217 240 257 269 281 250 248 224 231 267 269 268 279 279 269 212 299 279 297 315 303 33 342 26 11 9 8 5 3 49 54 93 124 132 147 145 153 156 150 147 151 156 144 142
223 219 229 219 204 212 240 244 270 283 208 206 212 249 237 231 272 278 230 206 282 256 283 336 356 350 34 44 36 20 36 22 33 48 50 72 84 127 138 144 148 153 148 140 146 149 147 147 140
214 225 227 243 221 192 211 253 253 261 222 208 217 212 221 259 255 234 210 302 224 200 326 18 345 46 27 40 38 39 55 39 64 54 58 62 88 121 140 150 151 152 146 142 142 146 150 153 159
217 220 220 222 211 208 221 251 244 270 223 214 199 201 239 244 233 191 241 289 168 167 99 41 42 92 93 51 47 47 93 52 48 33 47 85 101 123 126 133 139 135 139 146 142 145 146 145 151
Height
3186 3186 3187 3187 3191 3186 3182 3182 3181 3179 3178 3175 3173 3171 3171 3171 3169 3169 3167 3167 3167 3167 3165 3163 3160 3157 3154 3151 3149 3147 3145 3144 3143 3141 3139 3138 3136 3134 3133 3133 3134 3135 3136 3136 3137 3137 3138 3140 3142
3184 3185 3185 3185 3187 3184 3180 3179 3180 3179 3176 3174 3172 3167 3167 3167 3166 3166 3166 3165 3164 3164 3163 3160 3158 3154 3151 3148 3145 3144 3142 3140 3138 3137 3135 3133 3132 3131 3128 3127 3128 3129 3129 3129 3130 3133 3134 3134 3136
3182 3183 3184 3183 3181 3180 3178 3177 3175 3176 3173 3172 3169 3165 3164 3164 3164 3164 3164 3162 3162 3161 3160 3157 3154 3150 3146 3143 3141 3138 3138 3137 3134 3132 3131 3129 3128 3126 3125 3123 3122 3122 3123 3123 3124 3126 3128 3129 3131
3182 3182 3184 3179 3176 3176 3176 3174 3175 3173 3173 3170 3167 3164 3161 3161 3162 3161 3159 3159 3158 3157 3156 3154 3151 3148 3144 3141 3138 3137 3134 3132 3130 3127 3124 3123 3121 3120 3119 3118 3117 3117 3117 3118 3120 3121 3122 3124 3125
3182 3181 3180 3176 3173 3174 3173 3173 3173 3172 3170 3167 3164 3163 3162 3160 3158 3158 3156 3155 3155 3153 3152 3150 3149 3145 3142 3139 3135 3133 3130 3127 3124 3120 3118 3116 3114 3114 3112 3112 3112 3111 3111 3112 3113 3114 3115 3117 3119
3178 3180 3177 3173 3171 3170 3170 3170 3172 3170 3168 3165 3162 3161 3160 3159 3158 3157 3153 3152 3151 3150 3148 3147 3145 3143 3140 3137 3133 3130 3126 3121 3117 3113 3111 3109 3108 3106 3104 3104 3104 3105 3104 3104 3105 3107 3110 3112 3114
3176 3177 3173 3172 3169 3168 3168 3168 3169 3166 3163 3162 3159 3157 3157 3155 3155 3154 3152 3150 3149 3148 3146 3144 3142 3140 3137 3134 3131 3127 3122 3116 3111 3108 3105 3103 3102 3100 3098 3098 3097 3097 3097 3097 3098 3101 3104 3106 3109
3173 3173 3169 3167 3167 3166 3166 3164 3165 3165 3162 3160 3158 3155 3154 3154 3151 3151 3150 3148 3147 3145 3144 3142 3140 3136 3132 3128 3124 3120 3114 3110 3106 3102 3099 3098 3097 3093 3093 3092 3091 3091 3092 3092 3093 3094 3097 3100 3104
3170 3169 3163 3162 3164 3163 3163 3160 3161 3162 3159 3158 3156 3153 3152 3150 3148 3147 3147 3144 3142 3141 3141 3139 3134 3130 3125 3121 3117 3113 3109 3105 3102 3099 3096 3094 3092 3090 3088 3086 3086 3085 3086 3087 3087 3089 3091 3094 3098
3162 3159 3156 3159 3159 3157 3158 3155 3156 3156 3153 3152 3151 3148 3147 3147 3145 3144 3143 3141 3139 3137 3136 3133 3129 3125 3120 3117 3112 3109 3106 3103 3099 3094 3090 3088 3087 3085 3083 3082 3082 3081 3081 3082 3082 3083 3085 3090 3093
3153 3148 3151 3154 3153 3153 3152 3150 3151 3150 3148 3148 3146 3143 3142 3141 3140 3139 3138 3137 3134 3131 3130 3127 3125 3121 3117 3113 3110 3106 3101 3097 3092 3089 3086 3085 3082 3080 3079 3078 3077 3076 3076 3077 3078 3079 3082 3085 3089
3146 3145 3145 3146 3148 3148 3146 3146 3144 3146 3145 3143 3142 3140 3138 3137 3136 3135 3134 3134 3132 3128 3126 3124 3122 3120 3117 3114 3109 3104 3099 3095 3091 3087 3084 3080 3078 3076 3074 3073 3072 3071 3071 3072 3073 3075 3078 3081 3085
3141 3139 3139 3140 3142 3142 3141 3140 3140 3139 3140 3140 3138 3137 3134 3133 3133 3132 3130 3130 3129 3127 3124 3120 3119 3117 3114 3112 3107 3100 3095 3091 3087 3083 3080 3077 3075 3072 3069 3067 3065 3066 3067 3068 3070 3071 3073 3077 3082
3136 3134 3134 3135 3136 3137 3136 3133 3135 3133 3136 3134 3133 3131 3130 3129 3130 3128 3127 3126 3124 3121 3120 3118 3117 3114 3111 3107 3102 3096 3091 3088 3083 3079 3077 3074 3071 3068 3064 3062 3062 3062 3064 3064 3065 3067 3069 3074 3078
3129 3127 3128 3128 3130 3128 3133 3125 3124 3128 3130 3128 3127 3126 3125 3125 3124 3123 3122 3122 3120 3119 3117 3115 3112 3110 3107 3103 3099 3093 3088 3083 3079 3076 3073 3070 3066 3062 3059 3059 3059 3059 3060 3060 3060 3062 3066 3069 3074
3124 3123 3118 3119 3124 3122 3130 3116 3118 3120 3123 3123 3123 3122 3121 3119 3119 3118 3116 3117 3115 3114 3112 3111 3108 3106 3104 3100 3095 3090 3084 3079 3076 3072 3070 3067 3062 3058 3057 3057 3056 3056 3055 3054 3056 3059 3063 3067 3071
3116 3112 3112 3111 3117 3118 3122 3114 3112 3114 3114 3114 3116 3117 3117 3115 3114 3112 3111 3111 3110 3110 3108 3106 3104 3101 3098 3095 3090 3085 3080 3076 3072 3068 3066 3063 3059 3056 3054 3054 3054 3053 3051 3051 3052 3056 3061 3066 3070
3105 3108 3106 3106 3106 3115 3112 3110 3107 3107 3107 3106 3108 3111 3111 3109 3108 3108 3107 3107 3107 3107 3104 3102 3099 3096 3093 3089 3086 3082 3078 3073 3069 3065 3062 3059 3056 3053 3052 3051 3051 3050 3048 3048 3049 3054 3060 3065 3069
3104 3105 3103 3101 3099 3110 3107 3105 3098 3099 3100 3100 3102 3104 3104 3103 3104 3104 3103 3103 3103 3102 3100 3097 3094 3092 3089 3085 3082 3079 3075 3071 3066 3062 3058 3056 3053 3051 3049 3050 3049 3049 3047 3046 3049 3053 3059 3064 3067
3098 3099 3099 3097 3096 3105 3101 3098 3094 3092 3094 3095 3097 3098 3098 3098 3099 3100 3100 3101 3100 3098 3095 3093 3091 3089 3085 3082 3079 3077 3073 3068 3064 3059 3056 3054 3051 3049 3048 3048 3048 3048 3047 3047 3050 3055 3060 3063 3067
3089 3093 3093 3096 3093 3097 3097 3092 3090 3088 3089 3091 3092 3093 3094 3093 3093 3095 3096 3096 3096 3094 3091 3089 3088 3085 3082 3079 3076 3074 3070 3065 3061 3056 3053 3051 3049 3046 3047 3048 3048 3048 3049 3051 3054 3058 3062 3065 3069
3081 3087 3090 3094 3094 3092 3092 3087 3086 3086 3086 3087 3088 3089 3088 3087 3089 3091 3091 3091 3090 3089 3087 3086 3084 3082 3078 3075 3074 3072 3069 3066 3060 3055 3052 3050 3048 3045 3047 3047 3048 3050 3051 3054 3058 3061 3064 3066 3070
3072 3083 3086 3087 3089 3090 3083 3087 3078 3081 3079 3080 3081 3083 3082 3083 3085 3085 3086 3087 3087 3085 3083 3082 3081 3078 3075 3073 3072 3071 3068 3064 3059 3056 3052 3049 3047 3046 3046 3047 3049 3051 3053 3056 3059 3062 3064 3068 3071
3073 3080 3082 3085 3086 3084 3082 3085 3069 3075 3075 3075 3076 3077 3078 3079 3080 3081 3083 3084 3083 3081 3080 3080 3078 3074 3072 3071 3071 3070 3066 3064 3059 3055 3052 3048 3046 3045 3047 3048 3050 3053 3055 3057 3060 3062 3065 3069 3072
3069 3075 3080 3082 3081 3070 3076 3076 3068 3069 3071 3072 3073 3074 3075 3076 3078 3079 3080 3080 3079 3078 3078 3077 3074 3072 3070 3070 3070 3068 3066 3063 3058 3054 3051 3048 3045 3045 3048 3050 3052 3055 3058 3060 3062 3065 3067 3070 3074
3058 3066 3068 3074 3073 3069 3071 3067 3064 3065 3067 3069 3069 3073 3073 3075 3076 3076 3077 3077 3076 3076 3075 3074 3072 3069 3069 3069 3069 3067 3065 3062 3058 3054 3051 3048 3046 3047 3049 3051 3054 3057 3060 3062 3064 3066 3069 3071 3074
3049 3053 3063 3067 3066 3063 3062 3062 3061 3059 3062 3064 3067 3069 3071 3073 3073 3073 3074 3074 3074 3073 3072 3071 3070 3068 3068 3068 3067 3066 3065 3062 3058 3054 3052 3050 3049 3050 3051 3053 3056 3059 3061 3064 3066 3068 3070 3073 3077
3037 3053 3060 3059 3064 3063 3056 3056 3056 3057 3058 3061 3064 3066 3068 3070 3070 3070 3071 3072 3072 3071 3070 3069 3068 3067 3067 3067 3067 3066 3065 3062 3059 3056 3055 3053 3051 3052 3054 3056 3058 3061 3064 3066 3068 3070 3072 3076 3078
3035 3042 3050 3051 3049 3052 3059 3050 3052 3057 3056 3058 3061 3064 3066 3067 3068 3069 3069 3070 3069 3069 3068 3068 3067 3066 3067 3067 3067 3066 3065 3064 3061 3059 3058 3057 3054 3054 3055 3058 3060 3063 3066 3068 3070 3072 3075 3078 3082
3030 3032 3038 3039 3041 3042 3046 3043 3050 3050 3053 3057 3060 3063 3065 3066 3066 3067 3068 3068 3067 3067 3067 3067 3067 3066 3067 3067 3067 3066 3066 3064 3063 3060 3059 3058 3057 3057 3058 3060 3063 3065 3068 3071 3073 3077 3079 3081 3084